User: anonymous   Login
Location: Unspecified
(0.0000°N, 0.0000°E)
Time: 09:18:16
(UTC+00:00)
Language:

GONETS M 07 - Orbit

View from above orbital plane
View from above orbital plane
View from above satellite
View from above satellite

Ground track
Ground track

The orbit data is extracted from the following two-line orbital elements,

1 39251U 13048C   17269.09596910  .00000010  00000-0  00000+0 0  9990
2 39251  82.4934 170.7294 0016286 322.9385  37.0569 12.42876909183221
Epoch (UTC): 26 September 2017 02:18:11
Eccentricity: 0.0016286
inclination: 82.4934°
perigee height: 1481 km
apogee height: 1507 km
right ascension of ascending node: 170.7294°
argument of perigee: 322.9385°
revolutions per day: 12.42876909
mean anomaly at epoch: 37.0569°
orbit number at epoch: 18322

The dashed part of the orbit path shows where the satellite is in the earth's shadow,  

DLR